Wind_Speed
42 41 42 42 40 39 39 40 38 33 30 29 29 30 29 30 32 33 34 33 33 36 37 35 34 32 30 32 31 30 30 29 27 28 23 17 17 19 19 19 19 18 16 14 12 13 17 18 18 20 22 22 22 22 23 23 21 20 19 18 17 16 15
43 41 41 41 41 40 42 41 36 32 31 31 32 34 31 30 31 28 28 29 29 33 31 27 29 28 28 32 34 32 31 30 29 30 24 17 17 17 17 19 20 20 19 17 14 15 17 18 19 21 23 23 22 22 23 22 20 19 17 17 17 17 16
43 41 41 42 42 42 43 41 36 33 34 36 38 36 32 31 29 27 26 26 25 27 23 19 21 23 21 24 27 30 33 34 33 31 25 20 20 19 18 19 20 21 21 18 16 16 18 18 19 20 22 23 22 22 22 21 20 18 17 16 16 17 16
42 41 45 45 44 45 44 40 37 35 35 37 38 35 31 29 28 25 22 21 21 21 16 14 16 17 18 20 23 26 31 36 36 32 28 24 21 20 19 19 21 22 20 18 17 17 19 20 19 19 21 22 22 22 22 21 19 17 16 15 15 14 14
37 43 50 49 44 45 46 43 41 39 37 36 37 34 31 29 27 23 18 19 19 14 11 13 14 13 15 16 21 26 28 32 34 31 29 24 19 19 19 18 20 21 19 18 19 19 20 21 19 17 19 20 20 21 22 20 18 17 15 15 14 14 13
35 42 46 48 46 44 44 44 44 42 38 36 37 35 32 31 29 24 18 16 13 10 13 16 13 12 15 15 19 27 27 27 30 29 28 24 20 20 20 19 19 19 18 19 20 19 18 17 17 17 18 18 18 20 21 19 17 16 16 16 16 16 15
34 35 34 39 42 40 40 42 43 43 39 37 37 35 32 32 31 28 21 13 9 11 16 17 13 13 16 16 17 23 24 25 28 29 27 24 21 21 21 21 22 20 19 19 17 15 14 15 16 17 17 16 17 20 20 19 17 17 17 17 16 16 15
36 34 32 33 33 33 37 41 41 42 42 40 36 33 32 32 32 31 27 19 13 11 13 14 16 16 17 16 17 21 23 24 27 28 28 27 23 20 19 21 24 23 21 18 14 14 14 16 17 17 16 15 16 18 19 18 18 17 17 17 17 16 15
40 39 39 39 37 34 37 42 42 42 41 39 36 33 31 32 33 33 32 25 17 13 13 16 20 21 19 16 16 20 22 22 24 26 28 28 24 21 21 22 24 25 22 17 14 15 17 16 16 15 15 15 15 16 18 18 18 17 17 16 16 16 15
46 44 45 46 45 40 39 40 42 43 41 36 35 35 33 32 32 32 33 30 23 21 20 19 23 25 22 19 17 19 21 20 22 24 26 25 22 21 20 19 22 23 22 19 17 18 19 19 17 16 15 15 15 17 18 18 17 17 16 15 15 15 15
50 46 44 43 44 41 37 38 40 43 43 36 32 34 35 32 31 30 30 32 31 28 26 24 24 23 22 25 24 20 21 23 22 21 21 20 18 17 15 17 20 20 20 19 18 18 20 20 18 17 16 15 17 18 18 18 17 16 16 15 15 14 14
52 47 40 37 39 40 36 34 38 41 43 40 33 32 33 30 29 28 26 30 32 30 29 29 27 24 25 30 30 22 19 21 21 19 20 21 21 18 13 17 18 18 19 19 17 17 18 20 19 17 16 15 17 18 17 17 17 16 15 15 14 14 15
55 48 41 38 39 41 38 32 34 39 42 44 38 32 30 28 28 27 24 27 30 28 26 28 27 28 30 31 28 22 18 19 21 22 23 24 23 19 13 12 13 15 17 19 19 17 17 19 19 17 16 16 17 17 16 16 16 16 15 13 12 12 13
58 50 46 44 44 45 41 32 33 37 39 43 42 33 28 26 26 24 21 23 28 26 24 25 27 30 32 30 26 22 21 22 23 25 26 24 22 19 14 11 12 14 15 17 19 19 18 20 19 18 18 18 18 16 16 15 14 14 13 11 9 8 8
61 51 48 49 49 48 43 35 38 41 38 40 42 36 29 26 25 23 20 22 25 25 25 27 28 30 31 30 27 24 26 27 26 27 27 25 22 20 18 14 13 14 15 16 17 17 19 20 21 21 21 21 20 18 17 16 14 12 10 8 7 6 7
62 52 51 55 55 51 46 39 41 45 39 37 41 40 32 27 26 25 24 26 28 28 29 29 27 28 31 31 28 27 28 28 27 28 29 26 22 21 22 19 17 17 17 18 18 18 20 22 23 25 24 23 21 19 17 16 14 12 10 8 8 8 8
63 56 55 58 56 54 48 40 39 42 38 34 37 39 36 29 27 28 28 29 32 33 32 31 28 29 31 31 28 28 28 27 29 30 30 29 29 28 27 23 19 18 20 22 23 22 22 23 24 24 23 21 20 18 17 16 15 13 11 10 9 9 9
66 59 56 56 57 55 49 41 40 43 40 36 35 36 37 33 29 31 32 33 36 37 33 32 33 33 33 32 31 30 30 30 30 30 28 28 31 30 27 22 18 18 19 21 23 24 23 24 24 23 21 20 19 18 17 16 15 13 11 10 10 10 10
70 60 56 57 58 56 48 41 44 47 43 40 40 40 42 41 35 35 37 37 37 38 37 35 38 39 38 38 37 36 35 33 30 28 26 27 29 26 22 22 22 20 17 16 17 19 21 24 24 24 22 21 19 18 16 15 14 13 12 12 12 12 12
75 61 55 58 59 55 48 45 49 51 45 43 45 46 47 48 43 38 39 39 38 38 39 40 41 43 43 43 42 40 39 34 28 25 25 26 26 24 20 21 22 22 19 17 15 15 17 19 21 22 21 20 19 17 16 15 15 14 14 14 14 14 15
79 66 55 54 56 56 54 53 55 52 47 48 50 49 50 51 47 40 38 41 42 40 40 42 43 45 46 45 42 39 37 32 27 26 25 24 24 23 22 21 20 21 20 18 17 16 17 18 19 20 20 19 18 17 16 15 15 16 16 17 17 18 18
78 72 57 49 52 59 61 60 59 53 49 52 52 48 50 52 49 45 42 43 45 44 43 44 46 47 46 43 41 39 36 32 30 28 26 25 25 25 24 22 20 20 20 19 18 17 17 17 18 19 20 20 19 18 17 16 16 16 16 18 20 21 21
76 75 64 50 49 60 66 63 59 53 51 57 55 48 51 56 55 52 49 45 47 49 49 49 49 48 46 44 41 39 36 33 32 30 28 27 27 26 25 23 21 20 20 20 19 17 17 18 19 20 20 20 20 20 20 20 20 19 18 19 22 24 25
75 75 71 59 52 58 67 67 60 52 54 61 58 50 54 61 61 59 56 52 52 54 54 54 54 51 48 47 45 41 37 34 33 32 31 29 28 27 26 25 23 22 21 21 20 19 19 20 20 21 20 19 20 20 21 22 22 22 21 22 24 26 27
76 74 70 66 59 59 67 70 62 55 58 65 59 50 54 63 65 64 62 60 58 58 57 56 57 54 50 49 49 45 41 38 34 32 32 31 29 29 29 27 25 23 23 23 23 22 21 20 21 21 20 19 19 19 19 20 22 23 24 25 26 27 28
74 74 68 66 64 61 66 72 66 58 60 66 61 51 53 63 68 66 66 65 64 63 61 58 56 53 49 48 49 46 42 38 35 33 33 32 31 31 30 29 26 24 23 24 25 23 22 21 22 21 21 20 19 18 18 18 19 22 24 25 26 27 28
68 73 69 66 67 63 64 69 67 60 60 65 65 58 53 60 68 69 67 69 69 67 64 61 57 53 50 48 48 45 40 37 35 35 35 35 34 34 32 30 28 26 25 25 25 24 23 22 22 22 22 21 20 18 18 17 18 20 21 23 24 25 26
62 68 67 63 64 64 63 63 63 62 63 64 66 63 57 57 66 71 70 70 70 67 64 61 60 58 54 48 45 42 40 38 38 38 38 38 38 37 35 32 30 29 28 26 25 24 24 24 24 24 24 23 22 21 19 19 19 20 20 21 22 23 24
57 64 66 63 60 60 60 60 60 64 68 67 63 63 62 59 61 67 71 70 68 66 64 62 60 60 56 49 44 41 39 39 40 41 43 43 42 41 38 36 33 32 30 29 27 26 25 25 26 25 25 25 24 23 22 22 22 22 22 22 21 22 24
52 57 62 65 62 59 59 59 57 60 68 71 66 62 62 63 62 63 66 68 67 65 65 62 59 56 52 47 44 43 41 40 41 43 45 47 46 44 42 39 37 35 34 32 30 29 28 28 28 27 27 26 25 25 25 24 24 24 25 24 23 23 24
48 53 60 65 65 62 61 60 57 56 61 68 69 65 63 64 65 64 64 65 67 67 66 63 60 57 53 48 45 45 44 43 43 44 46 48 49 47 45 43 41 39 38 36 33 32 32 31 31 31 29 28 27 27 27 27 27 27 28 28 27 26 26
46 50 57 63 64 60 60 62 61 58 58 63 69 72 71 68 66 66 65 65 66 67 67 66 64 62 60 56 51 48 47 46 44 44 46 48 50 50 48 46 45 44 42 40 38 36 36 35 35 34 33 32 30 30 30 29 29 30 31 30 29 28 28
50 49 52 60 63 60 58 63 65 62 60 62 65 69 72 73 72 70 69 68 67 66 67 68 67 65 63 60 55 52 50 48 46 45 46 47 49 50 49 48 47 47 45 43 42 40 39 38 37 37 36 35 33 33 32 32 31 31 32 32 31 31 31
58 56 56 60 65 64 60 61 66 65 61 61 61 62 64 68 73 75 74 73 72 70 68 68 68 67 66 63 58 54 51 49 47 47 48 47 47 48 48 47 47 47 47 46 44 43 41 41 40 40 39 38 36 35 34 33 33 33 33 33 33 33 33
61 63 63 61 64 66 63 58 60 62 60 57 57 57 56 58 65 70 73 73 75 75 74 72 70 68 67 65 62 58 54 51 48 47 48 48 48 48 48 48 48 48 47 47 46 44 44 43 42 42 41 40 39 37 36 36 36 35 35 35 35 35 35
54 60 64 65 64 66 67 63 60 60 58 55 54 55 54 52 54 59 64 66 67 70 73 73 71 68 66 64 63 61 59 56 52 49 48 48 48 49 49 49 49 48 48 47 46 45 45 45 45 44 43 42 41 40 39 39 39 39 39 38 38 37 36
48 52 58 65 68 68 68 69 68 65 62 58 55 54 54 54 53 54 57 58 57 57 60 63 64 63 62 60 59 59 61 60 56 53 50 49 48 49 50 50 50 49 49 47 47 46 46 46 46 46 46 45 44 43 42 42 42 42 41 41 41 40 39
Wind_Direction
223 219 221 222 219 219 220 221 224 226 225 227 230 232 233 234 235 237 239 244 246 244 247 248 242 237 234 232 232 234 246 255 253 250 243 223 217 224 230 231 226 225 230 228 226 230 230 228 225 221 216 213 211 209 209 208 205 201 199 197 197 200 205
224 221 219 220 219 219 223 225 224 223 220 219 224 228 228 232 236 239 241 242 241 241 240 241 244 238 226 230 234 230 235 246 249 251 245 216 206 220 226 220 215 216 221 221 222 227 227 227 227 224 218 214 214 214 213 210 205 200 199 199 199 200 201
221 223 221 219 218 219 224 228 225 220 218 218 221 224 225 230 236 238 239 242 244 243 236 227 235 238 224 223 228 224 223 231 239 247 244 221 212 224 226 217 214 214 215 215 218 225 227 224 225 226 220 215 216 218 216 211 205 199 195 194 197 199 198
219 220 224 221 217 218 220 223 225 220 218 223 225 225 227 229 233 237 240 242 245 245 237 214 213 227 229 222 221 218 217 224 231 237 242 232 223 232 231 220 215 212 209 211 216 225 230 226 225 228 225 219 217 220 218 209 203 197 191 189 191 194 194
224 218 223 223 219 218 216 216 220 219 215 220 226 226 225 224 226 228 231 234 241 250 247 233 225 228 231 222 217 217 218 226 232 236 240 236 230 233 225 209 210 208 201 206 215 221 225 225 224 229 232 227 222 223 220 210 199 190 185 182 182 184 187
227 224 223 225 223 222 220 219 222 223 217 217 224 223 219 219 220 220 222 227 236 241 230 234 248 249 233 219 214 217 218 225 233 236 237 233 224 219 204 193 202 205 199 206 215 219 220 220 219 225 232 232 228 226 222 212 198 186 181 179 179 182 185
214 230 235 233 228 226 225 225 226 228 225 221 223 224 219 216 216 217 218 207 209 236 231 226 242 251 234 218 212 217 218 221 229 232 233 229 219 205 193 190 199 205 207 210 210 212 213 212 211 213 220 228 230 227 222 214 200 188 183 181 182 185 188
194 215 233 240 236 228 223 223 224 227 229 226 224 225 222 218 214 214 215 197 188 227 236 220 224 236 234 220 212 217 216 218 227 230 227 227 224 215 209 203 200 207 214 213 205 201 204 208 208 205 209 220 229 226 220 214 204 193 188 186 186 188 192
184 192 207 223 231 227 219 217 217 220 224 226 225 222 222 222 216 212 213 203 182 183 197 200 206 220 234 232 222 225 222 221 229 229 226 229 232 230 227 214 202 206 214 212 204 199 198 200 202 201 204 215 229 228 218 213 208 200 194 192 191 193 196
182 185 194 209 220 221 216 213 212 212 213 218 224 221 218 221 220 214 213 209 193 177 179 195 207 218 240 250 238 229 222 218 223 226 227 229 231 233 231 214 200 204 210 210 207 202 196 194 197 202 209 218 231 231 219 213 212 206 200 198 197 198 199
182 184 191 206 219 222 217 209 207 208 206 205 217 223 219 218 220 219 214 210 205 194 187 195 207 216 239 252 248 233 219 215 218 225 229 229 234 240 220 183 176 186 196 204 209 206 199 195 198 207 214 222 229 227 218 213 213 210 206 204 202 201 201
183 183 186 199 215 225 224 212 204 205 203 200 206 219 219 215 215 218 215 210 209 207 205 208 213 216 231 247 253 250 233 219 213 214 218 220 231 239 211 176 173 184 196 205 210 210 205 200 200 206 212 220 224 222 217 213 212 213 214 210 206 204 202
182 184 185 185 197 216 226 220 207 203 203 201 201 210 218 215 212 214 216 214 210 210 216 222 222 223 231 242 250 247 229 208 199 200 207 215 225 232 221 191 179 184 194 202 208 212 210 203 199 200 205 213 218 217 216 214 211 214 219 218 215 213 209
183 186 187 181 184 202 214 211 200 198 203 203 197 199 211 213 209 209 213 215 212 212 222 228 226 225 229 233 235 227 207 193 193 199 208 216 223 227 227 210 193 190 190 197 207 211 209 202 196 195 200 207 213 213 212 215 214 214 219 222 222 223 224
184 186 186 180 181 194 203 198 188 190 200 204 195 190 199 206 203 200 201 205 207 212 220 225 226 226 226 225 221 210 198 195 198 203 210 217 221 225 229 226 220 216 206 205 213 214 209 202 196 195 200 206 210 210 208 211 215 215 218 222 225 227 232
184 186 185 181 181 188 197 196 187 184 192 201 196 188 186 195 199 195 194 199 199 204 213 217 219 222 223 224 219 207 202 208 212 207 205 207 209 217 226 227 225 218 207 207 213 214 213 209 202 200 202 206 209 208 204 205 211 214 215 218 225 231 234
185 188 185 181 182 186 192 194 184 180 187 196 199 193 182 183 196 195 193 198 200 202 211 211 207 211 217 221 220 212 210 215 214 209 206 204 203 210 218 222 220 210 202 204 208 211 215 215 211 208 206 208 210 207 203 204 207 211 214 215 223 232 237
186 191 185 179 181 185 190 189 178 177 185 190 196 196 183 179 194 200 196 199 201 204 210 206 198 202 210 213 214 214 216 217 216 217 223 221 216 218 222 223 222 216 210 209 210 211 214 215 215 216 215 216 216 213 210 210 210 213 218 224 232 240 249
187 192 188 181 184 187 185 181 177 179 184 186 191 195 185 180 191 202 203 204 203 204 207 203 198 200 205 208 210 213 216 220 225 231 238 236 231 233 235 230 230 230 226 221 217 215 216 216 216 218 221 222 221 219 217 216 217 223 228 234 240 245 254
188 192 191 186 187 186 179 177 180 182 183 184 190 195 188 183 188 198 205 209 209 208 208 206 205 206 208 210 212 214 217 221 228 234 239 240 239 241 241 236 234 236 235 231 228 226 226 225 223 223 224 226 226 226 227 227 229 232 236 241 244 247 253
191 193 191 186 186 182 176 178 183 183 182 183 187 193 192 187 188 194 203 207 207 208 208 208 211 215 216 217 219 221 223 224 226 230 234 240 242 240 239 235 234 235 236 232 226 224 226 226 226 227 229 230 231 233 234 234 236 237 240 245 247 249 253
194 194 189 183 182 180 177 179 183 184 184 182 183 189 191 188 188 197 205 204 202 206 207 207 211 217 220 224 227 228 228 225 224 226 230 235 239 240 238 234 230 229 230 229 223 218 221 224 226 229 231 234 237 239 240 241 242 241 242 246 248 250 253
197 197 193 185 181 180 178 178 182 186 187 183 182 185 188 186 188 197 205 204 201 205 208 206 209 215 219 225 228 228 226 223 222 225 228 230 233 236 238 235 231 227 229 230 225 221 226 231 232 232 232 235 238 241 244 245 246 244 242 244 246 247 249
200 201 200 194 185 180 179 179 183 189 189 185 184 184 185 186 190 196 203 207 205 206 207 207 208 212 217 221 224 224 221 219 220 223 227 227 228 231 234 233 229 226 229 230 227 225 226 229 232 235 236 237 238 239 241 242 243 244 242 241 240 241 244
203 205 206 203 194 183 180 180 184 190 190 187 186 185 184 186 191 196 201 206 208 207 207 207 209 213 217 217 220 222 221 218 219 222 225 226 226 228 231 231 228 225 227 230 230 227 223 222 229 235 237 239 239 237 237 237 238 240 240 237 235 233 237
204 207 210 210 203 192 183 182 185 188 190 189 188 186 184 186 191 197 200 204 208 209 208 208 210 215 220 220 220 222 222 221 221 222 224 226 227 229 230 230 229 225 224 227 228 227 225 224 226 228 230 234 236 233 232 232 232 233 233 232 231 229 230
203 207 212 213 211 203 190 186 189 191 192 192 191 188 185 185 190 196 200 203 207 210 211 211 211 214 219 221 222 223 223 222 220 220 223 225 228 230 229 227 227 225 223 225 226 226 227 227 225 223 224 227 228 228 229 231 230 230 227 226 227 227 227
201 205 210 212 213 211 201 193 195 197 197 196 195 191 187 187 191 197 200 203 207 210 212 213 214 215 216 217 220 222 220 217 215 217 220 223 225 229 228 226 225 224 223 224 227 228 229 229 227 224 222 222 223 225 228 230 231 231 228 225 224 225 227
200 203 209 210 210 210 204 196 196 199 199 199 199 195 192 190 192 197 201 203 206 209 212 214 216 218 219 219 219 219 217 214 213 214 216 219 222 225 226 226 226 224 222 224 227 229 229 230 230 227 224 224 225 225 226 227 228 231 232 230 226 225 227
202 202 207 211 212 209 203 198 197 199 201 202 202 200 198 196 196 199 202 204 205 207 211 214 217 220 221 219 218 220 221 219 218 216 216 218 221 223 224 227 229 228 226 226 229 231 232 232 232 231 229 228 227 227 226 227 229 233 235 235 233 231 230
205 202 204 208 212 212 209 206 203 203 205 205 206 208 206 202 200 202 205 207 208 210 211 214 216 219 219 220 222 226 226 224 222 221 220 220 221 224 227 229 232 233 232 231 233 235 235 234 234 234 233 231 230 229 229 229 230 235 238 239 238 237 235
206 205 206 207 208 210 211 210 206 203 203 205 208 213 215 212 208 208 209 210 211 213 214 216 218 219 222 226 231 234 233 229 225 222 221 221 222 225 227 230 232 235 236 237 237 238 238 236 234 234 234 233 231 231 232 232 233 236 239 241 241 240 240
209 208 210 210 207 204 204 205 203 200 196 197 202 209 214 216 215 215 215 215 215 216 217 219 220 222 225 230 234 235 233 232 229 225 222 222 222 224 225 227 230 233 235 238 239 239 239 238 237 236 235 234 233 233 234 234 235 237 240 243 243 242 241
217 213 214 213 208 201 199 200 201 199 195 193 197 202 207 211 213 215 216 217 218 219 220 222 223 226 229 233 235 234 233 233 232 229 226 224 223 223 223 224 227 230 232 235 237 238 239 240 240 239 239 237 236 236 237 238 239 240 241 243 244 244 244
223 220 220 218 211 205 203 204 203 201 196 193 195 200 202 204 207 210 213 216 218 221 223 225 226 229 232 234 234 233 232 231 232 232 230 228 226 225 224 223 225 227 229 231 233 236 238 240 241 242 242 242 242 242 243 244 245 245 245 245 245 246 246
226 224 223 222 218 211 209 212 211 206 200 196 197 200 203 204 204 206 208 211 216 219 222 226 228 230 232 233 234 233 231 231 232 233 233 231 229 227 226 224 224 225 227 229 232 234 237 239 241 243 244 245 246 247 248 248 248 248 247 247 247 247 246
226 225 224 224 223 219 215 216 218 214 209 206 204 205 208 209 209 208 207 208 212 216 219 222 225 227 228 230 231 232 230 230 233 234 234 234 232 229 228 227 225 225 226 228 231 233 236 239 241 243 244 245 246 247 249 249 250 249 249 249 249 248 248
Height
5789 5794 5796 5799 5802 5805 5807 5809 5811 5816 5821 5823 5824 5826 5828 5830 5831 5833 5835 5837 5840 5843 5844 5847 5851 5854 5856 5856 5857 5859 5857 5856 5858 5859 5864 5869 5872 5874 5877 5879 5881 5882 5883 5884 5886 5888 5890 5892 5893 5896 5898 5899 5901 5903 5905 5907 5908 5909 5910 5912 5914 5916 5919
5785 5789 5793 5795 5799 5802 5803 5805 5810 5815 5818 5819 5820 5822 5825 5827 5827 5830 5833 5834 5836 5838 5839 5843 5845 5847 5851 5853 5854 5857 5855 5853 5854 5857 5861 5867 5870 5873 5875 5877 5879 5880 5881 5883 5884 5886 5888 5890 5891 5893 5895 5897 5900 5902 5905 5906 5907 5907 5908 5910 5912 5915 5918
5782 5786 5788 5790 5794 5798 5799 5803 5807 5811 5813 5814 5815 5817 5821 5823 5825 5828 5830 5831 5831 5833 5836 5840 5841 5842 5846 5848 5850 5853 5853 5851 5852 5855 5859 5864 5867 5870 5872 5874 5876 5878 5879 5881 5883 5885 5887 5888 5890 5891 5893 5896 5898 5901 5904 5905 5905 5905 5906 5908 5911 5913 5916
5778 5780 5780 5783 5789 5793 5796 5799 5802 5806 5809 5810 5812 5816 5819 5822 5824 5826 5827 5828 5828 5830 5833 5837 5838 5840 5842 5844 5846 5849 5850 5850 5851 5854 5857 5860 5864 5867 5869 5872 5873 5875 5877 5879 5882 5884 5885 5887 5888 5891 5893 5895 5897 5900 5903 5904 5904 5904 5905 5906 5909 5912 5915
5771 5772 5773 5778 5784 5788 5791 5793 5795 5799 5804 5807 5810 5814 5817 5820 5822 5824 5825 5826 5827 5830 5832 5833 5835 5838 5839 5841 5842 5845 5848 5849 5849 5853 5855 5858 5862 5865 5868 5870 5871 5873 5875 5877 5879 5882 5883 5886 5888 5891 5893 5895 5897 5900 5903 5904 5903 5902 5903 5905 5908 5911 5914
5764 5766 5770 5776 5781 5785 5788 5791 5792 5796 5801 5804 5806 5810 5814 5818 5820 5822 5824 5826 5828 5830 5830 5830 5833 5836 5837 5839 5840 5842 5845 5847 5847 5850 5853 5856 5860 5863 5867 5869 5870 5872 5874 5875 5877 5880 5882 5885 5887 5889 5892 5894 5897 5900 5902 5903 5902 5901 5901 5903 5906 5909 5912
5760 5767 5771 5773 5778 5783 5788 5790 5792 5795 5799 5801 5803 5806 5811 5815 5818 5821 5823 5825 5827 5828 5827 5828 5831 5833 5835 5837 5839 5840 5843 5844 5844 5847 5851 5854 5857 5862 5866 5868 5869 5871 5872 5874 5876 5878 5881 5883 5885 5887 5889 5892 5896 5899 5901 5902 5902 5900 5900 5902 5904 5907 5910
5757 5764 5768 5770 5774 5779 5782 5785 5789 5791 5794 5798 5802 5805 5809 5813 5816 5819 5821 5823 5826 5826 5825 5827 5829 5831 5832 5835 5837 5838 5840 5842 5842 5845 5848 5851 5854 5859 5863 5866 5867 5869 5870 5872 5875 5877 5878 5880 5882 5885 5887 5890 5894 5897 5900 5901 5900 5899 5899 5901 5903 5906 5909
5751 5757 5762 5763 5766 5770 5774 5778 5784 5788 5791 5795 5800 5803 5807 5809 5812 5816 5818 5821 5825 5826 5825 5826 5828 5829 5830 5834 5836 5836 5838 5840 5841 5843 5846 5849 5852 5856 5860 5862 5865 5867 5869 5872 5874 5875 5877 5879 5881 5884 5886 5889 5892 5895 5897 5898 5899 5899 5899 5900 5902 5904 5907
5744 5749 5753 5755 5757 5762 5769 5774 5779 5785 5789 5792 5796 5800 5803 5805 5809 5813 5816 5819 5823 5825 5826 5826 5826 5827 5829 5832 5834 5835 5836 5837 5838 5841 5844 5847 5850 5853 5856 5860 5863 5865 5867 5870 5873 5874 5876 5878 5880 5883 5885 5887 5889 5892 5894 5896 5897 5898 5899 5900 5901 5903 5906
5739 5745 5750 5754 5756 5759 5764 5770 5774 5780 5786 5790 5793 5797 5800 5803 5806 5810 5813 5817 5820 5822 5825 5825 5826 5828 5828 5827 5828 5832 5834 5835 5836 5839 5841 5845 5848 5850 5853 5857 5860 5862 5865 5868 5871 5873 5875 5876 5878 5880 5882 5884 5886 5889 5891 5893 5895 5897 5898 5899 5901 5903 5905
5735 5742 5748 5751 5755 5758 5762 5767 5772 5776 5782 5788 5791 5793 5797 5801 5805 5807 5811 5814 5816 5819 5822 5823 5825 5827 5826 5823 5825 5829 5832 5834 5836 5838 5840 5844 5846 5847 5850 5855 5857 5860 5862 5865 5868 5870 5872 5873 5875 5877 5879 5881 5884 5887 5889 5890 5893 5895 5897 5898 5900 5901 5904
5731 5737 5740 5744 5751 5756 5759 5765 5769 5773 5779 5784 5788 5792 5796 5800 5803 5806 5809 5811 5813 5816 5819 5820 5822 5824 5823 5822 5823 5827 5830 5833 5836 5838 5840 5842 5844 5846 5849 5852 5856 5858 5861 5863 5865 5867 5869 5871 5873 5875 5878 5880 5883 5885 5887 5889 5891 5893 5895 5897 5898 5900 5902
5725 5730 5734 5739 5745 5751 5755 5761 5767 5772 5776 5781 5786 5791 5795 5799 5802 5806 5809 5810 5812 5814 5815 5816 5818 5819 5819 5820 5822 5825 5829 5832 5835 5837 5839 5841 5843 5845 5848 5851 5854 5857 5859 5861 5863 5865 5867 5869 5872 5874 5877 5880 5882 5885 5886 5888 5889 5891 5893 5895 5897 5899 5901
5719 5727 5732 5733 5738 5745 5751 5756 5762 5767 5773 5778 5784 5789 5793 5797 5801 5804 5807 5808 5809 5810 5810 5812 5814 5815 5816 5817 5820 5824 5827 5829 5832 5835 5837 5839 5842 5844 5847 5849 5852 5855 5857 5859 5861 5864 5866 5868 5870 5873 5876 5879 5882 5884 5885 5887 5889 5891 5892 5894 5896 5898 5900
5718 5724 5727 5727 5732 5740 5746 5752 5758 5764 5770 5775 5781 5785 5790 5796 5800 5802 5804 5805 5806 5805 5807 5809 5812 5813 5813 5814 5818 5822 5824 5826 5829 5832 5834 5838 5841 5843 5845 5847 5850 5853 5856 5859 5861 5862 5864 5866 5869 5872 5875 5878 5880 5883 5884 5886 5888 5890 5892 5894 5895 5897 5899
5714 5719 5722 5725 5730 5736 5742 5750 5758 5765 5770 5774 5779 5784 5788 5794 5798 5800 5801 5803 5803 5803 5805 5808 5810 5811 5812 5813 5816 5819 5823 5825 5827 5830 5833 5836 5838 5840 5842 5845 5848 5851 5854 5857 5859 5860 5862 5865 5867 5870 5873 5876 5879 5882 5883 5885 5887 5889 5891 5893 5894 5896 5898
5708 5713 5718 5722 5726 5733 5741 5750 5757 5763 5767 5771 5776 5782 5787 5793 5797 5798 5798 5799 5799 5800 5803 5805 5807 5809 5810 5812 5814 5817 5820 5823 5825 5827 5830 5832 5835 5837 5840 5843 5846 5848 5851 5854 5856 5858 5861 5863 5866 5868 5871 5874 5877 5880 5881 5883 5885 5887 5889 5891 5893 5894 5896
5703 5710 5715 5718 5723 5731 5740 5748 5754 5757 5761 5766 5771 5774 5779 5784 5787 5789 5791 5793 5794 5796 5799 5801 5803 5806 5808 5809 5812 5815 5818 5820 5823 5825 5828 5830 5832 5835 5838 5841 5843 5846 5848 5851 5854 5856 5859 5861 5863 5866 5869 5871 5874 5877 5879 5881 5883 5885 5887 5889 5890 5892 5894
5700 5707 5711 5714 5720 5730 5738 5743 5747 5750 5755 5761 5765 5767 5770 5772 5775 5779 5784 5788 5790 5792 5794 5796 5798 5801 5802 5803 5807 5811 5814 5818 5822 5824 5825 5827 5829 5832 5836 5839 5842 5844 5846 5849 5852 5855 5857 5859 5861 5864 5866 5869 5871 5874 5876 5878 5880 5882 5884 5886 5888 5890 5891
5696 5701 5706 5710 5717 5726 5731 5734 5738 5743 5748 5752 5757 5761 5765 5769 5774 5777 5779 5782 5785 5787 5790 5792 5794 5795 5797 5800 5805 5809 5813 5817 5820 5822 5823 5825 5828 5830 5833 5836 5839 5842 5844 5847 5849 5852 5854 5856 5859 5862 5864 5866 5868 5871 5873 5875 5877 5879 5881 5884 5886 5888 5889
5691 5697 5701 5706 5712 5718 5722 5726 5733 5739 5741 5744 5750 5755 5761 5767 5772 5773 5770 5772 5778 5783 5786 5789 5790 5791 5795 5799 5803 5807 5810 5814 5817 5819 5821 5823 5825 5827 5830 5833 5836 5838 5841 5843 5846 5849 5852 5854 5856 5859 5861 5863 5865 5868 5870 5872 5874 5876 5879 5881 5883 5885 5887
5687 5692 5697 5701 5705 5711 5717 5724 5730 5733 5734 5739 5745 5750 5756 5761 5764 5765 5762 5764 5770 5776 5780 5783 5786 5789 5793 5796 5799 5802 5807 5810 5813 5815 5818 5820 5823 5825 5828 5830 5833 5835 5838 5840 5843 5846 5849 5851 5853 5855 5857 5860 5862 5864 5866 5869 5871 5873 5876 5878 5880 5881 5883
5682 5688 5692 5694 5698 5705 5712 5719 5724 5727 5731 5737 5741 5743 5747 5752 5756 5758 5757 5759 5764 5769 5774 5777 5780 5784 5788 5791 5794 5798 5802 5805 5808 5812 5815 5818 5821 5823 5824 5827 5830 5833 5835 5836 5839 5842 5845 5847 5849 5851 5853 5856 5858 5860 5863 5865 5867 5869 5872 5874 5875 5877 5879
5679 5683 5685 5687 5692 5700 5707 5713 5718 5722 5727 5733 5734 5735 5739 5744 5749 5752 5754 5757 5762 5764 5767 5771 5774 5778 5783 5787 5790 5794 5798 5802 5806 5810 5813 5816 5819 5820 5821 5824 5827 5830 5832 5834 5836 5838 5841 5844 5846 5848 5850 5852 5854 5857 5859 5861 5863 5865 5867 5869 5871 5873 5875
5676 5679 5681 5683 5687 5694 5700 5706 5710 5714 5720 5725 5727 5729 5734 5738 5742 5747 5751 5755 5758 5759 5762 5766 5770 5775 5780 5785 5788 5792 5797 5802 5806 5808 5811 5814 5816 5817 5819 5822 5825 5828 5830 5831 5833 5835 5838 5840 5843 5845 5847 5849 5851 5853 5855 5857 5860 5861 5863 5865 5867 5869 5871
5670 5675 5677 5680 5684 5690 5696 5701 5703 5707 5712 5716 5719 5724 5730 5733 5738 5744 5748 5750 5753 5756 5759 5764 5769 5773 5778 5782 5787 5792 5796 5801 5804 5807 5808 5810 5812 5814 5817 5820 5823 5825 5827 5829 5831 5833 5836 5838 5840 5842 5844 5846 5848 5850 5852 5855 5857 5858 5860 5862 5864 5866 5868
5662 5667 5669 5674 5680 5686 5691 5695 5698 5700 5704 5708 5712 5719 5725 5731 5735 5739 5743 5746 5749 5753 5757 5762 5767 5771 5775 5781 5785 5789 5793 5797 5801 5803 5804 5806 5808 5810 5813 5816 5819 5821 5823 5826 5829 5831 5834 5835 5837 5839 5841 5843 5846 5848 5850 5852 5854 5855 5857 5859 5861 5863 5864
5656 5660 5665 5670 5676 5680 5685 5689 5692 5694 5699 5705 5711 5716 5721 5726 5731 5735 5738 5742 5746 5750 5754 5758 5762 5767 5773 5779 5784 5787 5790 5793 5795 5798 5800 5801 5803 5806 5809 5812 5815 5817 5820 5823 5826 5828 5831 5833 5834 5836 5839 5841 5843 5845 5847 5849 5851 5852 5854 5856 5858 5860 5861
5655 5661 5666 5669 5672 5675 5679 5684 5688 5692 5697 5701 5707 5713 5718 5721 5726 5731 5734 5738 5743 5747 5750 5754 5759 5763 5769 5775 5780 5783 5786 5788 5791 5794 5796 5797 5800 5802 5805 5808 5811 5813 5816 5819 5822 5825 5828 5829 5831 5833 5836 5838 5840 5842 5844 5846 5848 5849 5851 5853 5855 5857 5858
5655 5659 5659 5661 5665 5669 5674 5681 5687 5691 5695 5699 5703 5708 5712 5716 5721 5726 5730 5735 5739 5743 5747 5751 5756 5760 5765 5769 5773 5777 5780 5783 5786 5790 5792 5795 5797 5799 5802 5805 5807 5809 5812 5816 5819 5822 5824 5826 5828 5830 5832 5835 5837 5839 5841 5843 5845 5846 5847 5849 5851 5853 5855
5650 5652 5654 5658 5664 5669 5674 5679 5682 5683 5687 5693 5699 5704 5708 5713 5719 5723 5727 5731 5735 5739 5743 5748 5752 5757 5761 5764 5767 5772 5775 5778 5782 5786 5789 5791 5793 5795 5798 5801 5804 5806 5808 5812 5815 5817 5819 5822 5824 5826 5828 5831 5834 5836 5838 5840 5841 5843 5844 5846 5848 5850 5852
5644 5649 5651 5653 5659 5665 5668 5670 5670 5671 5676 5683 5690 5696 5703 5710 5716 5721 5725 5728 5732 5736 5740 5744 5749 5753 5757 5760 5764 5768 5771 5774 5778 5781 5784 5787 5789 5791 5794 5797 5799 5802 5805 5807 5810 5813 5815 5818 5820 5822 5824 5827 5830 5832 5834 5836 5838 5840 5841 5843 5845 5847 5848
5637 5640 5640 5641 5648 5656 5659 5659 5661 5665 5672 5677 5683 5690 5696 5702 5708 5714 5719 5724 5728 5732 5735 5739 5744 5748 5752 5755 5760 5763 5766 5769 5773 5776 5779 5782 5785 5787 5790 5793 5795 5798 5801 5803 5806 5809 5811 5813 5815 5818 5820 5823 5826 5829 5831 5833 5835 5836 5838 5839 5841 5843 5844
5632 5635 5637 5640 5646 5652 5654 5655 5658 5663 5671 5678 5684 5689 5694 5698 5703 5708 5713 5718 5722 5726 5730 5734 5739 5743 5746 5750 5754 5758 5761 5764 5767 5770 5774 5777 5780 5783 5786 5789 5791 5794 5797 5799 5802 5805 5807 5809 5811 5813 5816 5819 5822 5825 5827 5828 5830 5831 5833 5835 5837 5838 5840
5629 5633 5636 5641 5646 5651 5655 5656 5658 5665 5674 5679 5683 5688 5692 5696 5700 5704 5708 5713 5717 5721 5726 5729 5733 5738 5741 5745 5748 5752 5756 5759 5762 5765 5768 5771 5775 5778 5781 5784 5787 5790 5793 5796 5798 5801 5803 5805 5807 5809 5812 5814 5817 5819 5821 5823 5824 5826 5828 5830 5832 5833 5835
5626 5629 5631 5635 5641 5649 5654 5654 5656 5664 5672 5677 5681 5686 5689 5692 5695 5700 5704 5709 5712 5716 5720 5724 5728 5732 5736 5739 5743 5746 5750 5754 5757 5760 5763 5766 5769 5773 5776 5779 5783 5786 5789 5792 5794 5796 5798 5800 5802 5805 5807 5809 5811 5814 5815 5817 5819 5821 5823 5824 5826 5828 5830